Vorticity
nan nan nan nan nan nan nan nan nan nan nan nan nan nan nan nan nan nan nan nan nan nan nan nan nan nan nan nan nan nan nan nan nan nan nan nan nan nan nan nan nan nan nan nan nan nan nan nan nan nan nan nan nan nan nan nan nan nan nan nan nan nan nan nan nan nan nan nan nan
nan 13 14 14 13 12 10 9 9 10 11 10 8 8 9 9 8 8 8 10 11 10 9 7 6 6 7 8 9 8 8 7 7 7 6 6 8 9 9 8 8 9 9 9 11 12 9 10 13 12 11 9 9 9 8 8 8 8 8 11 13 10 9 8 8 9 10 11 nan
nan 11 11 12 15 15 13 10 9 10 12 11 10 9 9 9 9 8 8 8 10 11 10 8 6 5 6 8 9 8 8 7 8 8 8 5 5 8 10 8 7 9 10 10 11 11 10 11 13 11 10 10 10 10 7 6 9 10 8 10 12 10 10 8 8 9 11 8 nan
nan 11 9 8 12 15 16 13 10 11 11 11 10 10 10 9 9 8 7 7 8 10 10 11 9 7 6 7 8 10 9 8 8 8 8 7 6 7 8 9 8 8 9 10 10 11 12 15 15 10 8 8 9 9 8 6 8 11 10 8 9 9 10 9 9 9 9 7 nan
nan 11 10 7 8 12 12 11 11 12 12 11 11 11 11 10 9 9 8 7 7 8 9 11 12 9 7 7 7 8 8 9 9 8 7 7 6 6 7 8 9 9 8 8 9 11 13 18 17 10 8 8 8 7 7 8 11 11 11 9 9 9 9 10 9 9 8 8 nan
nan 10 11 9 9 12 12 9 9 11 12 10 11 14 14 13 11 11 11 9 8 7 7 9 10 9 7 7 7 8 8 8 9 8 8 7 7 6 7 7 9 10 9 7 8 12 15 19 16 10 8 8 6 4 5 9 12 11 11 11 10 9 8 9 10 8 6 6 nan
nan 9 9 10 10 12 12 12 11 11 11 8 7 11 15 15 13 12 12 11 8 7 7 6 8 9 8 7 8 8 8 8 8 7 9 8 8 8 8 7 8 9 10 9 10 12 15 17 14 10 8 9 5 1 3 9 11 11 11 11 11 9 7 8 9 7 4 4 nan
nan 7 8 8 9 9 9 11 13 13 12 9 5 7 10 12 12 12 11 10 9 9 9 7 7 9 10 9 8 8 8 8 8 8 8 8 8 9 8 8 8 9 9 10 10 12 15 15 11 9 9 10 7 2 1 6 11 11 11 11 11 9 8 7 7 6 4 5 nan
nan 7 8 8 8 8 7 8 10 12 12 10 8 7 8 9 10 11 11 10 9 10 10 8 6 8 9 9 9 9 8 8 8 8 8 8 8 9 9 8 8 9 10 9 8 10 14 14 10 9 9 9 7 5 3 5 9 11 12 11 8 7 7 6 5 6 7 7 nan
nan 9 10 8 8 9 8 7 7 7 9 8 7 8 8 9 10 11 12 10 9 9 10 9 8 7 7 7 8 9 9 8 7 7 8 9 8 9 10 8 7 10 11 10 9 8 10 11 9 9 10 9 7 7 6 6 8 10 13 11 6 6 7 7 7 8 10 8 nan
nan 11 12 10 9 10 10 9 7 5 6 7 6 7 7 8 9 11 12 11 9 8 9 10 9 8 8 7 7 8 9 9 8 7 8 9 8 8 9 9 8 10 11 12 11 10 9 8 7 8 10 11 9 7 6 7 9 10 12 10 8 8 8 8 10 11 10 8 nan
nan 10 11 10 10 11 11 11 8 6 6 7 8 7 7 7 7 10 10 11 10 9 8 8 9 9 9 8 7 7 7 8 8 8 7 7 8 8 9 8 8 9 10 11 12 11 9 7 7 7 9 12 11 8 5 7 10 10 9 9 10 10 9 9 10 11 9 7 nan
nan 9 9 9 10 11 12 12 9 7 6 8 9 9 8 6 6 7 8 9 10 10 8 7 8 8 9 9 8 8 8 7 8 9 8 7 7 7 8 8 8 9 10 9 10 10 9 8 8 8 8 10 11 8 6 8 10 9 8 8 9 9 9 9 9 8 8 8 nan
nan 9 9 9 10 11 11 11 10 7 6 8 10 10 9 7 6 7 7 7 9 10 9 9 8 7 7 9 9 8 8 7 7 8 8 8 7 7 8 7 7 9 10 9 8 9 10 9 8 8 8 9 9 8 8 9 9 9 8 8 7 8 8 9 8 8 7 8 nan
nan 8 9 10 11 12 11 11 10 7 6 8 9 10 10 8 7 7 7 7 8 9 9 10 9 7 6 8 8 8 8 7 7 8 7 7 7 8 8 7 7 9 10 9 9 8 8 8 8 8 8 8 8 8 8 8 9 9 8 7 7 8 8 9 9 8 7 8 nan
nan 8 9 9 10 11 12 12 11 8 7 7 8 10 10 9 8 8 8 9 9 9 8 9 10 8 6 6 6 7 7 7 7 7 7 7 7 7 7 7 8 8 8 10 10 9 9 9 8 7 7 8 8 7 7 8 9 8 7 8 8 8 8 9 8 8 7 8 nan
nan 8 8 8 9 10 12 13 12 9 7 8 9 10 10 10 9 8 8 9 10 8 8 11 12 10 8 7 6 6 7 7 7 7 6 7 7 7 7 7 8 8 8 9 9 9 9 9 8 7 7 7 8 8 8 9 9 7 7 8 8 8 9 8 8 8 8 8 nan
nan 8 8 8 8 9 10 11 11 10 8 9 10 10 10 10 10 9 8 8 9 8 9 11 12 11 10 9 9 8 8 8 7 7 7 7 7 7 7 7 8 8 9 9 9 8 8 8 8 8 7 7 8 8 8 8 8 8 8 9 9 9 9 9 10 10 9 8 nan
nan 8 8 8 8 8 8 9 9 9 9 9 9 9 9 9 10 10 9 8 7 8 10 11 11 11 10 9 10 10 9 7 6 7 8 9 8 7 6 6 7 7 8 9 9 9 9 8 8 8 8 8 8 8 8 9 10 9 10 11 11 11 11 12 12 11 10 9 nan
nan 8 8 7 7 8 8 8 8 9 10 9 8 8 9 9 9 9 9 9 8 9 10 10 10 10 9 8 9 10 10 7 5 6 8 9 9 7 5 6 7 7 8 10 10 10 10 9 7 7 7 8 8 8 9 10 9 9 10 12 11 10 10 11 10 10 11 11 nan
nan 8 8 8 7 7 8 8 8 8 9 8 8 8 9 9 8 8 9 9 9 9 10 10 9 9 8 8 9 10 10 9 6 6 7 8 8 7 6 6 7 8 10 10 11 11 10 8 7 7 7 7 8 8 8 8 7 8 10 10 8 8 8 9 10 10 11 11 nan
nan 8 8 7 7 8 8 8 8 8 9 9 8 8 8 8 8 9 9 9 9 9 9 9 9 8 8 8 8 9 10 9 8 7 7 8 8 7 7 7 8 10 11 12 12 11 9 7 6 7 8 7 7 7 7 8 9 9 10 9 8 9 10 11 11 10 10 10 nan
nan 9 9 7 6 7 8 9 9 9 9 8 8 8 8 9 9 9 9 9 8 8 9 10 9 8 7 9 9 9 10 9 8 8 8 9 9 8 8 8 9 10 12 13 11 9 8 7 7 8 9 9 8 8 9 10 11 11 10 9 10 11 12 12 11 11 11 11 nan
nan 10 11 8 5 7 9 9 8 9 8 8 8 9 9 9 9 9 9 9 8 9 11 11 9 7 8 10 10 10 9 9 9 9 10 10 9 8 9 8 8 10 12 10 7 7 9 9 8 9 10 10 10 10 10 11 11 10 10 10 11 12 12 11 11 11 11 12 nan
nan 10 10 9 7 9 9 9 8 8 8 8 8 9 9 9 9 9 9 8 8 9 10 12 11 9 9 10 10 10 10 10 10 11 11 10 9 9 9 10 9 10 10 5 1 5 9 11 11 11 11 10 10 10 10 10 9 10 9 9 10 11 10 10 11 11 11 13 nan
nan 9 9 9 9 9 9 9 8 8 9 9 9 9 9 10 10 9 9 9 9 10 12 13 13 13 11 9 9 10 11 11 12 13 12 9 7 8 10 11 10 9 6 1 1 4 5 7 10 13 14 12 9 10 10 9 9 9 8 9 11 10 10 11 11 12 13 14 nan
nan 9 9 9 9 9 9 9 9 9 9 9 9 9 9 10 10 8 8 10 11 12 13 14 14 14 12 9 8 10 12 13 13 12 10 8 6 7 11 13 11 8 2 -0 2 5 5 6 8 11 15 14 11 10 10 8 8 10 11 12 12 11 10 10 11 12 13 12 nan
nan 9 8 8 9 9 9 9 9 9 9 9 9 9 9 9 9 9 10 10 11 13 14 14 14 13 11 9 8 10 12 15 12 9 7 5 6 8 11 12 10 5 0 1 4 6 6 7 8 9 13 16 16 12 11 11 11 12 13 13 12 11 11 11 12 12 11 10 nan
nan 9 9 9 9 10 10 9 9 9 9 9 9 9 9 10 10 10 11 11 11 13 15 15 12 10 8 8 9 11 12 12 9 6 5 5 7 9 10 11 9 4 0 2 6 6 7 8 8 8 10 16 20 15 13 12 11 11 11 11 10 9 8 9 8 8 8 10 nan
nan 9 9 9 9 10 9 9 9 9 10 10 9 9 10 10 10 11 12 12 12 13 14 12 9 8 8 9 12 12 11 8 6 5 6 6 7 9 9 10 10 6 1 2 7 7 7 8 8 8 8 15 21 18 14 10 9 9 10 9 7 6 7 8 7 8 9 10 nan
nan 9 9 9 10 10 9 9 9 10 10 9 9 10 10 9 9 11 13 14 13 12 11 9 9 9 10 12 12 11 10 7 7 7 7 7 7 7 9 10 10 7 1 2 7 7 7 8 8 8 8 16 22 19 13 9 9 10 9 7 6 6 9 11 11 10 9 9 nan
nan 10 10 9 10 10 9 10 10 10 10 10 11 10 10 9 10 11 13 13 12 10 9 10 11 11 12 13 11 10 9 9 9 8 8 7 6 7 9 11 9 6 1 3 7 7 7 7 8 8 8 17 23 19 13 11 12 11 10 8 9 9 11 11 10 9 10 11 nan
nan 9 10 10 10 10 10 10 10 10 10 11 11 10 10 11 12 13 14 13 11 9 10 11 12 12 12 12 11 10 10 10 8 6 7 7 7 8 10 13 11 4 1 4 7 7 7 7 7 7 8 18 25 18 13 12 13 11 10 10 11 12 12 11 11 10 11 12 nan
nan 9 10 11 11 11 10 10 10 10 11 11 10 10 11 12 13 14 14 12 11 10 10 11 12 12 11 11 11 11 11 10 6 6 6 7 8 9 12 16 10 -0 -1 5 7 7 7 7 7 7 10 21 25 17 11 11 12 9 8 9 10 11 12 12 12 12 11 12 nan
nan 9 9 10 10 10 10 10 10 10 10 10 10 10 11 12 13 13 12 11 10 10 10 11 11 11 11 9 10 10 11 10 7 7 7 8 8 9 10 12 7 -0 1 6 8 8 7 7 6 8 14 24 23 14 10 12 12 10 9 9 10 10 10 11 12 11 11 12 nan
nan 7 8 9 9 10 10 10 10 10 10 10 11 11 11 12 12 12 11 10 9 9 10 11 11 11 10 10 10 10 8 8 9 8 8 7 7 8 8 8 7 3 4 6 8 8 7 7 6 9 18 24 18 11 11 13 12 11 10 10 10 9 11 12 12 11 12 12 nan
nan 6 7 8 9 9 9 10 10 10 10 9 10 11 12 12 12 12 11 10 9 8 10 11 11 11 10 11 11 9 7 8 10 9 9 8 7 6 6 8 9 7 6 6 7 8 7 7 7 12 20 21 14 10 11 13 12 10 10 12 11 11 13 13 11 11 11 10 nan
nan 6 6 7 8 8 9 10 10 10 10 9 10 11 11 12 13 11 11 10 8 8 9 11 11 12 11 11 10 9 8 9 10 10 9 9 8 6 6 9 11 9 6 4 6 7 8 8 9 13 20 19 13 13 13 12 10 10 11 12 11 10 12 12 11 11 9 6 nan
nan 6 6 6 6 7 8 10 10 10 10 10 10 10 10 12 12 11 11 9 8 9 10 11 11 11 10 10 10 9 8 9 10 10 11 10 8 5 6 10 10 8 4 4 6 8 9 9 10 13 20 20 16 15 14 11 10 10 11 12 11 10 11 12 11 11 9 5 nan
nan 8 5 4 5 7 9 11 11 10 10 10 10 11 11 12 12 11 11 9 8 11 12 11 9 10 9 9 10 10 9 9 10 11 12 10 6 5 9 12 9 7 4 4 6 8 10 11 11 14 22 22 17 15 13 11 10 10 11 11 11 11 11 11 12 11 11 9 nan
nan nan nan nan nan nan nan nan nan nan nan nan nan nan nan nan nan nan nan nan nan nan nan nan nan nan nan nan nan nan nan nan nan nan nan nan nan nan nan nan nan nan nan nan nan nan nan nan nan nan nan nan nan nan nan nan nan nan nan nan nan nan nan nan nan nan nan nan nan
CAPE
nan nan nan nan nan nan nan nan nan nan nan nan nan nan nan nan nan nan nan nan nan nan nan nan nan nan nan nan nan nan nan nan nan nan nan nan nan nan nan nan nan nan nan nan nan nan nan nan nan nan nan nan nan nan nan nan nan nan nan nan nan nan nan nan nan nan nan nan nan
nan nan nan nan nan nan nan nan nan nan nan nan nan nan nan nan nan nan nan nan nan nan nan nan nan nan nan nan nan nan nan nan nan nan nan nan nan nan nan nan nan nan nan nan nan nan nan nan nan nan nan nan nan nan nan nan nan nan nan nan nan nan nan nan nan nan nan nan nan
nan nan nan nan nan nan nan nan nan nan nan nan nan nan nan nan nan nan nan nan nan nan nan nan nan nan nan nan nan nan nan nan nan nan nan nan nan nan nan nan nan nan nan nan nan nan nan nan nan nan nan nan nan nan nan nan nan nan nan nan nan nan nan nan nan nan nan nan nan
nan nan nan nan nan nan nan nan nan nan nan nan nan nan nan nan nan nan nan nan nan nan nan nan nan nan nan nan nan nan nan nan nan nan nan nan nan nan nan nan nan nan nan nan nan nan nan nan nan nan nan nan nan nan nan nan nan nan nan nan nan nan nan nan nan nan nan nan nan
nan nan nan nan nan nan nan nan nan nan nan nan nan nan nan nan nan nan nan nan nan nan nan nan nan nan nan nan nan nan nan nan nan nan nan nan nan nan nan nan nan nan nan nan nan nan nan nan nan nan nan nan nan nan nan nan nan nan nan nan nan nan nan nan nan nan nan nan nan
nan nan nan nan nan nan nan nan nan nan nan nan nan nan nan nan nan nan nan nan nan nan nan nan nan nan nan nan nan nan nan nan nan nan nan nan nan nan nan nan nan nan nan nan nan nan nan nan nan nan nan nan nan nan nan nan nan nan nan nan nan nan nan nan nan nan nan nan nan
nan nan nan nan nan nan nan nan nan nan nan nan nan nan nan nan nan nan nan nan nan nan nan nan nan nan nan nan nan nan nan nan nan nan nan nan nan nan nan nan nan nan nan nan nan nan nan nan nan nan nan nan nan nan nan nan nan nan nan nan nan nan nan nan nan nan nan nan nan
nan nan nan nan nan nan nan nan nan nan nan nan nan nan nan nan nan nan nan nan nan nan nan nan nan nan nan nan nan nan nan nan nan nan nan nan 0 0 0 nan nan nan nan nan nan nan nan nan nan nan nan nan nan nan nan nan nan nan nan nan nan nan nan nan nan nan nan nan nan
nan nan nan nan nan nan nan nan nan nan nan nan nan nan nan nan nan nan nan nan nan nan nan nan nan nan nan nan nan nan nan nan 0 nan nan 0 0 0 0 0 nan nan nan nan nan nan nan nan nan nan nan nan nan nan nan nan nan nan nan nan nan nan nan nan nan nan nan nan nan
nan nan nan nan nan nan nan nan nan nan nan nan nan nan nan nan nan nan nan nan nan nan nan nan 0 0 0 nan nan nan nan nan nan 1 1 0 1 1 1 0 nan nan nan 0 nan nan nan nan nan nan nan nan nan 0 0 nan nan nan nan nan nan nan nan nan nan nan nan nan nan
nan nan nan nan nan nan nan nan nan nan nan nan nan nan nan nan nan nan nan nan nan nan nan nan 0 nan nan nan nan nan nan nan nan nan nan 0 0 1 1 1 0 nan nan 1 0 0 0 1 2 2 0 1 1 1 1 2 2 2 2 3 4 3 3 1 2 2 0 2 1
nan nan nan nan nan nan nan nan nan nan nan nan nan nan nan nan nan nan nan nan nan nan nan nan nan nan nan nan nan nan nan nan nan nan nan nan nan 0 0 0 0 nan nan 0 nan nan nan 2 3 3 4 2 1 2 2 5 3 2 2 5 4 3 3 5 6 6 1 3 8
nan nan nan nan nan nan nan nan nan nan nan nan nan nan nan nan nan nan nan nan nan nan nan nan 0 nan nan nan nan nan nan nan nan 0 0 0 0 0 0 0 1 0 0 0 0 0 1 2 4 4 5 3 1 3 3 3 2 2 2 4 3 3 3 5 8 8 5 5 7
nan nan nan nan nan nan nan nan nan nan nan nan nan nan nan nan nan nan nan nan nan nan nan nan nan nan nan nan nan nan 0 nan 0 0 0 0 0 0 0 0 1 1 1 nan 2 2 2 1 3 3 3 3 2 1 1 1 1 2 2 3 2 2 2 4 9 9 8 5 3
nan nan nan nan nan nan nan nan nan nan nan nan nan nan nan nan nan nan nan nan nan nan nan nan nan nan nan nan nan nan nan nan 0 0 0 0 0 1 1 0 1 1 1 1 2 2 2 2 2 2 1 1 1 2 2 1 1 1 1 2 3 2 2 2 6 6 8 7 2
nan nan nan nan nan nan nan nan nan nan nan nan nan nan nan nan nan nan nan nan nan nan nan nan nan 0 0 nan nan nan nan nan 1 1 1 1 1 1 1 0 0 1 1 2 2 2 3 2 2 2 1 1 1 1 1 1 2 2 2 2 3 2 2 1 5 5 8 8 7
nan nan nan nan nan nan nan nan nan nan nan nan nan nan nan nan nan nan nan nan nan nan nan nan 0 1 1 0 nan nan nan 1 3 2 2 1 1 1 1 1 0 2 2 1 2 2 3 2 2 2 2 2 1 0 0 1 0 3 3 3 2 2 2 2 4 4 6 7 5
nan nan nan nan nan nan nan nan nan nan nan nan nan nan nan nan nan nan nan nan nan nan nan 1 1 1 1 1 0 0 0 5 8 6 6 5 6 7 7 3 2 1 1 1 2 2 3 3 3 3 2 2 2 1 1 1 3 3 3 5 5 4 4 5 3 3 3 3 0
nan nan nan nan nan nan nan nan nan nan nan nan nan nan nan nan nan nan nan nan nan nan nan 0 1 2 2 2 2 2 4 3 10 12 12 7 7 10 10 4 0 2 2 1 2 2 2 3 2 2 2 1 1 2 2 2 4 5 5 4 3 2 2 nan nan nan nan nan nan
nan nan nan nan nan nan nan nan nan nan nan nan nan nan nan nan nan nan nan nan nan nan nan nan 1 1 1 1 1 1 4 2 9 9 9 5 11 5 5 1 0 1 1 0 2 2 4 5 3 3 3 2 1 0 0 0 0 1 1 0 1 1 1 0 nan nan 1 8 7
nan nan nan nan nan nan nan nan nan nan nan nan nan nan nan nan nan nan nan nan nan nan nan nan nan nan nan 0 1 1 3 4 8 7 7 6 10 3 3 1 0 3 3 3 6 6 8 6 4 4 2 2 3 1 1 2 3 3 3 2 3 7 7 9 9 9 5 3 5
nan nan nan nan nan nan nan nan nan nan nan nan nan nan nan nan nan nan nan nan nan nan nan nan nan nan nan 0 1 1 1 5 11 8 8 7 6 4 4 3 4 8 8 12 8 8 8 6 4 4 3 1 2 3 3 2 4 4 4 5 7 6 6 7 6 6 6 9 13
nan nan nan nan nan nan nan nan nan nan nan nan nan nan nan nan nan nan nan nan nan nan nan 0 nan nan nan 1 2 2 3 7 12 13 13 10 10 12 12 7 6 7 7 5 7 7 4 3 3 3 3 3 4 4 4 4 5 7 7 9 9 10 10 5 4 4 2 4 6
nan nan nan nan nan nan nan nan nan nan nan nan nan nan nan nan nan nan nan nan nan nan nan 0 nan nan nan 1 3 3 6 6 13 15 15 13 13 12 12 8 5 3 3 4 7 7 6 2 3 3 3 5 5 6 6 7 10 11 11 10 10 6 6 5 0 0 nan nan 1
nan nan nan nan nan nan nan nan 0 0 0 nan nan nan nan nan 0 0 0 nan nan nan nan nan nan 0 0 1 3 3 5 4 11 11 11 14 13 11 11 7 2 2 2 4 17 17 17 9 6 6 3 5 6 7 7 9 9 8 8 6 5 3 3 5 1 1 4 7 11
nan nan nan nan nan nan nan nan 0 0 1 0 0 0 0 0 0 0 0 0 nan nan nan nan nan 0 0 0 3 3 3 3 8 10 10 11 12 8 8 2 1 3 3 11 15 15 16 19 17 17 7 5 6 7 7 7 7 5 5 4 2 2 2 2 2 2 5 4 1
nan nan nan nan nan nan nan 0 1 1 1 1 0 0 0 0 nan 0 0 0 nan nan nan 0 3 1 1 0 3 3 3 2 3 7 7 8 9 4 4 1 1 3 3 12 15 15 15 17 19 19 15 5 7 7 7 6 6 6 6 3 1 0 0 nan 2 2 3 1 0
0 0 0 0 nan nan nan 2 1 1 2 1 0 1 1 1 0 0 0 nan 0 0 0 1 1 0 0 0 1 1 4 3 2 2 2 4 5 3 3 0 2 4 4 13 15 15 15 18 19 19 19 8 6 6 6 7 7 6 6 2 0 nan nan 1 2 2 3 3 5
0 1 1 0 nan nan nan 3 2 2 2 2 1 2 2 2 1 0 0 0 0 1 1 nan nan nan nan nan nan nan 4 4 1 nan nan 1 1 1 1 nan 1 5 5 13 13 13 14 16 18 18 19 17 5 5 5 7 6 5 5 0 nan 0 0 1 3 3 7 9 8
0 2 2 1 1 1 1 3 3 3 3 2 2 2 2 1 1 0 0 0 1 0 0 nan nan nan nan nan 0 0 2 nan nan nan nan 1 1 1 1 nan 1 5 5 11 12 12 14 16 18 18 17 20 8 7 7 7 5 2 2 nan nan 0 0 5 11 11 13 13 14
0 1 1 1 1 1 3 3 2 2 3 2 3 1 1 0 1 1 1 1 0 nan nan nan nan nan nan nan 1 1 nan nan nan nan nan nan nan 0 0 nan 0 4 4 11 12 12 15 16 18 18 19 22 11 5 5 4 3 nan nan nan 0 4 4 12 14 14 15 17 20
0 0 0 0 2 2 4 3 2 2 3 3 3 2 2 1 1 2 2 1 nan nan nan nan nan nan nan nan nan nan nan nan nan nan nan nan nan 0 0 nan 0 3 3 11 13 13 15 17 19 19 22 26 14 5 5 2 0 nan nan 1 9 18 18 13 9 9 14 19 14
0 1 1 1 1 1 4 3 3 3 3 3 3 3 3 3 1 3 3 0 nan nan nan nan nan 0 0 nan nan nan nan nan nan nan nan nan nan 0 0 0 0 6 6 12 13 13 14 17 23 23 25 25 10 4 4 1 0 1 1 6 14 13 13 10 11 11 14 13 6
nan 1 1 1 0 0 4 3 4 4 3 3 3 2 2 3 3 3 3 nan nan nan nan nan nan 0 0 nan nan nan nan nan nan nan nan 0 0 nan nan 1 0 12 12 11 12 12 15 20 24 24 28 26 4 2 2 0 0 3 3 6 8 10 10 13 12 12 7 4 nan
nan nan nan 0 1 1 2 4 4 4 3 2 3 2 2 2 4 1 1 nan nan nan nan nan 0 1 1 nan 0 0 nan nan nan 1 1 1 0 nan nan 0 nan 9 9 10 13 13 19 24 25 25 26 20 2 0 0 nan 0 1 1 4 9 9 9 5 2 2 1 0 nan
nan nan nan nan 1 1 1 3 3 3 2 1 2 1 1 2 1 nan nan nan nan nan nan nan 0 nan nan nan 0 0 nan nan nan 0 0 1 0 nan nan nan nan 6 6 10 15 15 20 24 25 25 27 14 1 nan nan nan nan 2 2 4 5 3 3 nan nan nan nan nan nan
nan nan nan nan 0 0 1 2 2 2 0 1 2 2 2 0 0 nan nan nan nan nan nan nan nan nan nan nan nan nan nan nan nan 1 1 0 nan nan nan nan nan 3 3 10 17 17 22 24 26 26 25 6 nan 1 1 1 2 4 4 4 1 1 1 nan nan nan 0 1 3
nan nan nan nan nan nan 2 2 0 0 nan nan 1 nan nan nan nan nan nan nan nan 0 0 nan nan nan nan nan nan nan nan nan nan 0 0 nan nan nan nan nan nan nan nan 11 17 17 20 26 28 28 23 3 1 1 1 5 4 6 6 4 2 1 1 nan 0 0 2 5 6
nan nan nan nan nan nan 2 1 nan nan nan nan nan nan nan nan nan nan nan nan nan 0 0 nan 0 nan nan nan nan nan nan nan nan nan nan nan nan nan nan nan nan nan nan 9 15 15 19 23 28 28 29 6 3 3 3 6 7 6 6 4 1 1 1 1 1 1 1 4 22
nan nan nan nan nan nan 1 1 nan nan nan nan nan nan nan nan nan nan nan nan nan nan nan nan nan nan nan nan nan nan nan nan nan nan nan nan nan nan nan nan nan nan nan 8 13 13 15 22 25 25 31 12 6 7 7 8 6 3 3 2 1 1 1 1 1 1 1 2 22
nan nan nan nan nan nan 1 0 nan nan nan nan nan nan nan nan nan nan nan nan nan nan nan nan nan nan nan nan nan nan nan nan nan nan nan nan nan nan nan nan nan nan nan 4 10 10 14 19 24 24 29 7 7 5 5 2 2 2 2 1 0 0 0 0 0 0 1 1 1